Wind_Speed
8 19 20 23 25 25 23 29 25 28 33 29 28 30 31 33 31 39 37 37 39 42 42 39 38 40 36 38 42 36 38 35 34 26 23 20 25 24 24 25 22 21 25
11 17 24 23 22 24 28 28 27 26 24 29 28 29 27 31 32 33 37 38 36 41 40 38 38 40 36 36 41 38 31 30 33 20 15 2 7 23 26 25 25 27 25
9 12 18 23 23 24 24 26 29 28 21 28 29 29 30 29 31 34 34 36 37 38 40 41 40 41 41 37 42 40 36 28 36 34 14 3 5 5 19 29 30 29 29
8 8 13 22 23 24 23 26 28 26 23 24 28 28 25 23 26 28 32 32 35 37 40 42 40 42 42 39 42 44 42 33 28 30 34 13 10 4 2 20 34 34 32
7 11 12 20 24 23 23 25 24 23 22 19 28 31 27 26 25 28 26 37 33 34 36 39 41 39 44 43 44 40 38 41 33 31 27 27 14 7 3 3 7 25 35
7 8 15 20 25 26 22 21 21 20 17 17 25 31 29 26 25 26 30 32 34 34 34 38 38 40 40 39 48 45 43 43 35 32 30 28 21 12 6 1 3 9 20
6 8 10 16 23 28 29 24 19 20 17 14 22 29 32 33 30 30 30 28 32 31 33 36 36 41 38 41 40 43 44 43 39 38 34 30 27 24 17 11 5 3 15
6 7 7 11 18 23 25 26 23 22 19 19 20 26 32 31 31 30 32 32 32 31 31 34 32 47 31 34 39 39 37 41 40 38 35 33 32 33 29 24 13 2 5
6 6 7 10 17 21 24 24 24 23 20 19 21 26 26 31 30 32 34 31 29 33 33 31 36 45 31 34 33 36 34 32 38 38 38 32 32 38 36 35 24 16 7
6 6 6 11 17 21 22 25 25 22 23 22 13 21 24 28 31 34 34 34 35 34 32 29 32 38 29 37 40 31 40 44 38 36 36 36 31 31 32 30 30 26 13
4 5 6 11 14 20 21 23 25 23 25 25 13 7 13 16 15 27 32 33 34 34 35 30 29 33 36 40 39 32 24 29 31 34 37 38 35 30 29 30 23 19 23
4 4 6 12 14 18 22 21 23 23 25 24 23 22 11 9 18 14 19 28 32 34 31 32 31 30 30 30 29 25 27 29 29 33 32 33 31 28 25 25 20 24 25
4 4 6 6 12 18 21 23 24 22 25 26 28 26 22 22 9 6 11 9 22 23 27 28 26 27 29 22 21 26 26 22 24 23 22 18 22 21 22 20 22 24 20
4 2 3 4 9 13 17 21 23 23 22 25 26 29 28 27 20 13 4 6 10 10 15 16 16 18 19 19 23 24 21 15 18 10 9 10 10 14 16 16 19 22 22
5 4 2 2 6 11 15 18 19 21 21 21 26 25 26 28 27 25 24 22 23 20 19 18 16 13 12 12 11 12 15 14 10 6 5 6 8 10 11 14 19 19 19
6 6 2 1 3 7 10 13 16 18 19 21 20 20 23 26 27 28 32 30 31 28 30 29 28 28 22 14 10 10 9 10 7 6 2 2 3 4 4 5 8 6 9
7 7 5 3 3 3 6 9 10 13 17 20 21 21 21 23 22 25 27 27 25 25 31 27 30 30 27 24 21 18 19 21 17 15 13 10 8 5 4 3 3 4 3
8 7 6 6 4 2 3 6 8 10 13 17 19 19 19 20 22 25 25 24 24 26 26 28 27 28 26 22 21 21 20 21 19 16 13 10 9 8 6 4 2 3 5
8 11 13 11 7 4 1 2 4 8 11 13 15 16 16 19 21 22 21 22 24 25 25 25 24 25 24 19 18 19 19 20 19 16 14 13 12 10 9 7 7 7 7
12 14 17 12 9 8 5 4 3 4 7 8 10 11 13 15 16 17 17 18 20 23 24 23 21 21 22 18 18 16 16 18 16 15 13 11 10 9 10 8 8 9 11
14 17 17 17 15 13 11 8 6 4 4 6 7 8 10 12 13 14 15 16 20 21 20 19 18 19 17 17 17 16 16 15 12 11 9 7 6 9 9 9 9 9 11
12 19 18 17 15 17 15 14 13 10 8 6 6 8 9 9 11 13 14 14 14 17 16 16 16 13 12 13 14 14 13 9 8 6 5 6 9 9 10 9 8 7 8
15 21 21 19 18 19 18 17 16 15 14 12 10 7 8 9 9 10 11 11 10 11 11 12 10 9 8 11 11 12 10 8 5 3 6 6 7 7 6 7 8 9 11
14 22 21 17 20 22 21 19 16 17 16 15 14 13 12 10 9 8 8 9 9 9 8 7 6 5 4 5 6 6 5 5 5 6 5 5 4 4 5 6 7 8 10
17 21 19 19 23 25 25 21 19 20 20 18 17 16 15 14 12 9 8 7 6 5 6 6 6 6 5 2 1 2 4 5 5 4 4 8 11 12 13 14 14 14 13
18 18 22 22 25 28 29 26 23 24 22 20 20 19 18 15 14 12 10 5 3 4 5 8 7 6 4 2 1 4 4 5 5 5 10 15 16 16 16 15 16 15 15
Wind_Direction
315 318 306 313 307 300 296 301 295 301 262 245 239 235 234 238 238 236 231 231 222 210 204 200 196 194 194 197 202 202 206 209 203 199 205 214 222 219 221 228 229 229 230
320 314 315 309 304 303 303 303 294 293 277 237 233 231 228 235 238 238 231 232 226 214 209 201 198 196 196 197 197 197 194 198 196 188 183 194 235 226 224 224 227 233 234
298 299 304 307 309 304 304 302 300 296 292 244 237 231 228 236 234 234 230 231 227 222 210 207 201 197 197 195 194 197 197 196 197 201 175 145 215 188 220 226 230 232 233
286 287 301 307 312 308 305 301 303 300 284 255 226 218 219 227 227 232 231 231 233 229 218 211 204 199 198 197 196 199 200 194 192 196 203 197 168 187 214 225 229 231 234
281 299 306 308 312 316 316 309 305 304 286 260 233 224 222 227 230 226 231 234 239 236 227 217 205 205 199 202 199 199 199 201 199 198 201 209 202 200 142 204 217 229 232
297 311 319 326 329 330 325 319 312 309 303 267 241 228 225 224 226 224 224 233 239 240 235 225 210 207 203 199 199 202 201 204 204 203 205 207 209 209 165 197 216 205 224
312 315 337 331 330 332 330 327 317 305 301 275 249 238 235 231 227 228 224 221 232 236 233 229 227 212 209 202 202 201 205 207 202 201 205 209 212 218 209 201 214 194 213
310 312 303 311 329 328 329 326 324 316 306 282 254 245 239 234 229 229 230 229 227 234 237 235 233 229 224 207 201 202 206 204 209 206 204 207 214 222 222 222 201 215 231
316 316 322 329 338 334 337 333 330 329 322 290 266 244 238 234 231 236 235 237 240 240 241 237 234 241 257 234 207 197 198 212 205 203 209 209 217 222 221 221 227 209 212
321 324 323 337 346 346 346 354 353 354 358 5 304 249 238 240 238 238 240 240 242 244 245 236 232 219 217 234 230 208 206 212 213 209 210 216 221 221 221 221 215 215 206
302 315 323 339 348 5 358 359 360 355 4 6 355 301 240 232 236 238 241 244 244 245 243 235 220 209 207 211 220 208 195 196 197 210 211 217 218 217 209 209 213 216 224
298 326 340 352 352 1 8 357 360 4 7 13 32 35 18 284 237 249 251 244 244 244 241 238 219 213 217 214 210 220 220 221 202 211 212 215 215 206 195 204 213 225 227
290 325 354 354 354 2 6 11 14 7 18 23 34 25 33 48 107 236 234 249 229 233 236 235 219 225 226 215 222 220 230 225 212 214 206 197 193 194 199 219 225 219 222
248 267 338 338 349 355 7 14 18 22 18 32 36 33 30 38 57 70 105 60 214 252 237 218 202 217 221 223 224 210 202 225 214 214 214 233 244 245 224 229 249 252 240
249 237 266 332 346 354 3 14 19 26 31 27 37 40 44 50 49 55 68 70 88 108 105 118 126 148 175 195 195 199 204 195 178 224 261 254 246 244 248 254 256 247 237
244 230 231 9 346 350 359 10 15 26 34 43 40 42 50 54 54 57 64 67 68 75 84 79 87 84 80 109 129 135 139 137 133 140 127 245 220 239 233 239 250 248 235
222 213 209 213 267 329 357 14 25 26 37 41 44 46 51 56 60 68 68 72 75 73 73 77 76 75 75 78 84 96 102 97 100 97 95 90 80 78 64 37 8 14 348
212 199 191 194 213 283 349 11 37 47 46 45 46 47 53 58 64 68 70 73 76 77 75 70 71 73 69 73 78 80 90 90 85 84 83 83 72 56 53 56 33 349 343
205 200 195 192 194 200 202 50 53 50 54 50 52 55 60 63 64 64 67 73 78 81 79 74 74 75 70 77 89 96 91 88 84 85 77 72 66 51 38 29 3 338 338
193 179 177 180 187 196 190 172 135 90 75 66 65 69 73 75 71 73 76 81 87 86 86 80 75 74 73 72 79 85 88 83 82 82 85 66 40 24 11 11 1 345 343
191 189 185 186 198 192 186 178 181 185 140 113 96 88 83 87 91 88 89 92 98 96 87 81 75 71 62 60 63 68 73 75 75 69 56 34 0 13 8 18 15 350 330
193 192 189 200 205 198 192 185 190 189 177 158 135 117 105 96 95 95 96 100 105 105 100 97 90 89 81 63 58 63 66 59 70 54 25 360 357 2 9 17 4 354 345
207 208 205 210 211 209 210 202 203 189 180 173 168 154 133 120 111 112 106 95 94 100 99 103 93 80 59 48 47 57 60 54 67 23 351 3 8 7 349 341 337 340 341
216 214 208 208 217 216 216 222 206 194 189 184 179 173 164 153 147 131 132 137 136 132 128 122 110 101 95 60 54 51 46 34 27 13 12 13 6 2 7 357 356 358 344
216 212 206 213 218 221 220 221 210 199 195 193 186 181 177 172 163 160 161 161 160 170 167 167 169 166 163 139 58 23 14 1 352 339 26 19 12 10 5 358 357 356 353
216 207 212 215 221 220 218 219 214 207 202 195 192 188 182 176 170 163 148 153 156 160 177 170 171 164 159 196 349 9 1 353 349 13 16 8 6 4 357 350 343 345 345
Height
770 768 767 763 759 756 751 745 740 734 732 733 734 735 734 737 740 743 745 748 749 753 756 759 764 768 772 776 782 787 792 796 800 805 808 810 812 813 814 815 817 818 819
770 767 762 760 756 749 743 738 734 729 725 724 725 727 729 730 734 737 738 741 744 746 749 752 757 761 766 771 774 779 785 789 793 798 804 809 810 808 809 810 812 813 815
771 768 762 756 751 746 740 734 728 723 718 717 719 720 723 725 727 729 732 734 738 740 743 746 749 753 757 762 766 772 776 781 786 789 794 805 804 802 803 804 805 807 809
768 764 758 752 747 741 735 729 722 716 712 712 712 713 715 717 718 723 726 728 732 734 737 739 741 744 749 754 759 764 768 774 778 784 786 788 789 796 800 797 798 800 803
764 759 755 748 742 735 728 722 715 711 707 706 706 706 709 711 714 718 720 724 727 730 732 734 734 740 740 747 751 757 763 765 771 775 780 783 786 786 790 794 792 795 796
757 754 750 745 736 729 724 718 712 706 703 701 701 701 703 706 710 712 714 718 722 724 727 731 729 733 736 737 741 749 754 758 764 769 773 775 778 781 783 789 787 787 789
752 750 746 741 735 727 720 715 710 703 699 696 695 696 697 699 702 706 708 711 715 717 720 724 728 726 730 733 737 741 747 752 756 759 765 768 771 776 776 781 783 784 785
751 749 744 742 737 730 722 714 707 699 693 690 688 689 692 694 696 698 702 704 707 710 714 718 722 726 725 725 731 736 743 742 752 754 760 761 765 770 769 776 779 783 784
748 747 743 741 736 729 722 714 705 697 691 686 682 683 685 687 690 693 695 699 702 704 707 710 713 716 724 726 722 729 738 730 735 746 753 754 759 759 762 765 771 773 778
748 744 741 738 734 728 722 714 706 698 690 682 678 678 678 682 685 688 690 693 695 698 701 704 706 711 707 716 721 720 723 732 736 740 744 747 750 754 757 759 763 765 768
746 744 741 737 734 730 724 717 709 700 693 685 678 676 676 678 680 682 684 687 690 692 695 697 701 703 708 713 714 715 712 718 722 731 734 739 741 745 748 751 753 759 764
742 742 740 737 734 731 726 720 713 704 696 690 682 680 676 675 676 678 678 679 682 686 689 693 695 698 702 706 707 713 717 715 720 725 730 731 735 736 740 744 750 755 758
741 741 740 738 734 731 727 720 714 708 700 692 687 684 678 674 673 675 675 674 676 679 683 687 690 694 698 699 701 705 707 707 716 719 722 725 726 732 735 741 747 749 752
738 739 739 739 735 732 727 722 716 711 705 697 691 687 683 680 675 676 674 674 672 678 682 686 686 691 694 697 700 702 704 710 716 717 723 725 726 733 736 739 743 746 747
734 735 736 736 735 731 728 723 719 714 709 703 697 695 692 687 684 681 680 675 676 677 676 681 685 689 692 696 698 701 706 710 713 718 722 724 727 732 734 736 739 741 742
733 732 732 732 732 730 728 725 722 717 713 709 706 703 698 695 691 688 685 685 684 686 686 688 689 689 693 695 699 702 705 708 713 718 720 726 727 730 731 734 735 738 738
729 730 730 731 731 730 728 725 723 720 716 713 710 709 706 702 700 696 696 696 694 695 692 696 693 697 699 702 704 705 708 709 716 720 721 726 728 729 729 731 737 736 738
724 726 727 728 729 728 727 726 724 722 719 716 714 712 712 710 707 704 704 704 703 699 702 702 704 704 704 704 707 707 711 713 718 721 726 728 730 730 732 733 735 736 737
717 719 721 724 726 726 726 725 724 723 722 720 718 717 715 714 713 712 711 710 711 710 710 710 711 712 714 715 716 717 719 721 723 726 729 730 732 732 731 731 732 733 734
711 714 717 719 721 724 725 724 723 723 723 723 721 720 719 717 717 717 717 717 716 716 717 719 721 722 720 721 721 722 722 724 727 729 730 731 733 733 733 732 731 732 733
707 711 713 713 715 718 720 722 722 722 722 722 723 723 722 720 720 721 721 721 720 721 723 725 726 725 727 729 726 726 726 727 730 731 732 733 733 733 733 730 730 732 732
705 706 707 709 712 714 714 715 717 718 719 720 721 722 722 722 721 722 723 724 725 724 726 728 731 733 733 731 729 730 730 732 733 735 734 734 735 733 731 730 732 732 731
699 700 702 705 707 709 711 712 713 714 715 716 718 719 720 720 721 722 723 723 724 725 727 728 730 730 730 730 731 730 732 734 735 733 732 730 730 730 730 731 731 731 729
695 695 698 700 701 704 706 708 711 712 714 715 716 718 718 719 720 720 722 723 725 726 726 726 727 729 731 731 732 732 733 733 731 730 730 730 730 729 728 728 728 728 726
687 690 692 693 694 697 701 704 706 709 710 712 714 716 718 720 721 722 723 724 725 725 725 726 728 730 731 732 733 733 731 731 730 729 728 727 725 724 723 723 723 723 723
679 682 683 685 687 689 691 697 701 704 706 709 711 713 715 718 720 722 724 726 726 726 726 727 728 729 730 731 731 730 730 729 727 725 723 721 720 720 721 721 721 721 721